Regional Weather Roundup
Issued by NWS

Home | Current Version | Previous Version | Graphics & Text | Print | Product List | Glossary On
Versions: 1 2 3 4 5 6 7 8 9 10 11 12 13 14 15 16 17 18 19 20 21 22 23 24 25 26 27 28 29 30 31 32 33 34 35 36 37 38 39 40 41 42 43 44 45 46 47 48 49 50
000
ASUS45 KCYS 290110
RWRWY

WYOMING REGIONAL WEATHER ROUNDUP
NATIONAL WEATHER SERVICE CHEYENNE WY
700 PM MDT SAT MAR 28 2015

NOTE:  "FAIR" INDICATES FEW OR NO CLOUDS BELOW 12,000 FEET
WITH NO SIGNIFICANT WEATHER AND/OR OBSTRUCTIONS TO VISIBILITY.

WYZ001-290200-
YELLOWSTONE NATIONAL PARK

CITY           SKY/WX    TMP DP  RH WIND       PRES   REMARKS
LK YELLOWSTONE   N/A     40  13  33 NW16G24   30.13R WCI  31
W YELLOWSTONE  NOT AVBL

$$
WYZ002>013-054>058-071-098>099-290200-
NORTHERN WYOMING

CITY           SKY/WX    TMP DP  RH WIND       PRES   REMARKS
JACKSON        PTCLDY    46  21  36 SW16G23   30.11R
CODY           CLOUDY    55  28  35 W7        29.93R
GREYBULL       FAIR      60  24  25 NW28G39   29.86R
WORLAND        FAIR      66  24  20 NW20G31   29.83R
SHERIDAN       MOCLDY    57  16  20 NW32G47   29.85R
BUFFALO        CLOUDY    53  32  44 N30G44    29.85R HAZE
GILLETTE       MOCLDY    56  30  37 N24G40    29.80R
HULETT         MOCLDY    59  39  47 N26G36    29.79R
NEWCASTLE      FAIR      66  27  22 NW25G46   29.70R HAZE

$$
WYZ014>020-022>026-101>103-290200-
CENTRAL WYOMING

CITY           SKY/WX    TMP DP  RH WIND       PRES   REMARKS
BIG PINEY      FAIR      54  20  26 W17G26    30.12R
PINEDALE       FAIR      50  21  32 W22G29    30.13S
DUBOIS         MOCLDY    46  21  36 NW13G31   30.05R
LANDER         FAIR      63  14  15 VRB7G24   29.93R
RIVERTON       FAIR      63  15  15 W30G40    29.93R
CASPER         FAIR      65   9  11 W32G43    29.86R
DOUGLAS        FAIR      69  19  15 W22G33    29.80R

$$
WYZ021-027>030-104>119-290200-
SOUTHERN WYOMING

CITY           SKY/WX    TMP DP  RH WIND       PRES   REMARKS
EVANSTON       FAIR      54  20  26 W24G33    30.18S
KEMMERER       FAIR      52  21  30 W26G32    30.18R
FORT BRIDGER   FAIR      58  14  18 W24       30.20S
ROCK SPRINGS   FAIR      58  13  17 W25G33    30.11R
DIXON          FAIR      61  25  25 SW21G33   30.11R
RAWLINS        FAIR      60   8  12 W31G43    30.02R
SARATOGA       FAIR      61  18  18 W21G39    30.04R
LARAMIE        MOCLDY    56  26  31 SW17      30.02S
CHEYENNE       FAIR      64  24  21 W23G36    29.94S
TORRINGTON     FAIR      77  19  11 W23G36    29.75R
PINE BLUFFS    FAIR      72  21  15 W17       29.88S

$$


USA.gov is the U.S. government's official web portal to all federal, state and local government web resources and services.